Home   Weather   Aspen   Past weeks

Flag for USA Past Weather in Aspen, Colorado, USA — Yesterday and Last 2 Weeks

Now
65 °F

Sunny.


Feels Like: 65 °F
Forecast: 41 / 66 °F
Wind: 3 mph from North

Location: Aspen-Pitkin County Airport

Current Time: Oct 1, 2016 at 2:51:03 PM

Latest Report: Oct 1, 2016 at 1:53 PM


Visibility: 10 mi

Pressure: 29.94 "Hg (22.56 "Hg at 2411m altitude)

Humidity: 34%

Dew Point: 36 °F

Location of AspenLocation

Past Weather in Aspen — Graph

°F

Aspen Temperature Yesterday

Maximum temperature yesterday: 64 °F (at 2:53 PM)
Minimum temperature yesterday: 44 °F (at 11:53 PM)
Average temperature yesterday: 54 °F

High & Low Weather Summary for the Past Weeks

 TemperatureHumidityPressure
High80 °F (Sep 19, 4:53 PM)97% (Sep 23, 11:53 AM)30.47 "Hg (Sep 23, 11:53 AM)
Low31 °F (Sep 24, 1:53 AM)10% (Sep 17, 5:53 PM)29.46 "Hg (Sep 23, 3:53 AM)
Average54 °F52%30.05 "Hg
* Reported Sep 16 12:53 PM — Oct 1 12:53 PM, Aspen, Weather by CustomWeather, © 2016

Note: Actual official high and low records may vary slightly from our data, if they occured in-between our weather recording intervals... More about our weather records

Advertising

Aspen Weather History for the Previous 24 Hours

Scroll right to see more
 ConditionsComfort  
Time TempWeatherWind HumidityBarometerVisibility
12:53 PM
Sat, Oct 1
65 °FSunny.7 mph36%29.97 "Hg10 mi
11:53 AM64 °FSunny.6 mph40%30.01 "Hg10 mi
10:53 AM60 °FSunny.5 mph46%30.04 "Hg10 mi
9:53 AM54 °FSunny.3 mph57%30.07 "Hg9 mi
8:53 AM48 °FSunny.No wind68%30.09 "Hg10 mi
7:53 AM38 °FSunny.3 mph90%30.14 "Hg10 mi
6:53 AM36 °FClear.3 mph92%30.11 "Hg10 mi
5:53 AM38 °FClear.6 mph90%30.07 "Hg10 mi
4:53 AM40 °FClear.3 mph89%30.06 "Hg10 mi
3:53 AM40 °FClear.6 mph89%30.06 "Hg10 mi
2:53 AM42 °FClear.8 mph85%30.05 "Hg10 mi
1:53 AM44 °FPassing clouds.No wind82%30.05 "Hg10 mi
12:53 AM44 °FPassing clouds.3 mph82%30.06 "Hg10 mi
11:53 PM
Fri, Sep 30
44 °FClear.6 mph82%30.08 "Hg10 mi
10:53 PM46 °FPassing clouds.7 mph79%30.09 "Hg10 mi
9:53 PM47 °FPassing clouds.6 mph77%30.09 "Hg10 mi
8:53 PM50 °FPassing clouds.7 mph71%30.09 "Hg10 mi
7:53 PM52 °FClear.7 mph66%30.06 "Hg10 mi
6:53 PM58 °FPassing clouds.No wind54%30.03 "Hg10 mi
5:53 PM62 °FPartly sunny.6 mph46%30.01 "Hg10 mi
4:53 PM62 °FPartly sunny.8 mph39%30.02 "Hg10 mi
3:53 PM64 °FOvercast.6 mph43%30.01 "Hg10 mi
2:53 PM64 °FPartly sunny.8 mph41%30.02 "Hg10 mi
Weather by CustomWeather, © 2016

See weather overviewHow to use our weather pages